Content
SEND FEEDBACK

Daily
Averages
Monthly
Summary
United States of America

MENDOCINO, CALIFORNIA


Home > North America > United States > California
Elevation: 572 feet     Latitude: 39 15N     Longitude: 123 45W

WEATHER
 
SELECT A DAY
Number of Records: 219,666;   Date Range: 1/1/95 - 10/20/14
 
SHARE

PRINT THIS DATA

[ ← Previous Day ]
WEATHER ALMANAC - JANUARY 31, 2013
[ Next Day → ]
[ °C ]   °F
Weather ElementAverageHighLow
Temperature44.6 °F66 °F (2:56 pm)32 °F (6:21 am)
Dewpoint35.8 °F42.1 °F (3:56 pm)30.2 °F (6:21 am)
Humidity75 %96 % (3:56 am)33 % (2:56 pm)
Barometer30.26 in30.32 in (7:56 am)30.18 in (3:56 pm)
Wind Speed0.4 mph3.5 mph (7:56 am)
Weather ElementAverage
Visibility9.6 mi
Wind DirectionNNE (26.3 °)

Weather ElementTotal
Precipitation0.01 in
Heating Degree Days16 (Base 65)
Averaged from 24 records on January 31, 2013
WEATHER CONDITIONS BREAKOUT
WIND DIRECTION BREAKOUT
WEATHER BY HOUR - JANUARY 31, 2013
[ °C ]   °F
Local TimeTemperatureDewpointHumidityBarometerVisibilityWind DirectionWind SpeedGust SpeedPrecipitationEventsConditions
1:56 AM37.9 °F35.1 °F89 %30.30 in9.0 miCalmClear
2:56 AM36.0 °F34.0 °F93 %30.30 in10.0 miCalmClear
3:56 AM34.0 °F33.1 °F96 %30.29 in10.0 miCalmClear
4:56 AM35.1 °F33.1 °F92 %30.30 in10.0 miCalm0.01 inClear
5:56 AM33.1 °F30.9 °F92 %30.30 in10.0 miCalmClear
6:21 AM32.0 °F30.2 °F93 %30.30 in10.0 miCalmScattered Clouds
6:30 AM33.8 °F30.2 °F87 %30.30 in10.0 miCalmMostly Cloudy
6:39 AM33.8 °F30.2 °F87 %30.30 in10.0 miCalmScattered Clouds
6:56 AM33.1 °F30.9 °F92 %30.30 in10.0 miCalmClear
7:56 AM34.0 °F32.0 °F92 %30.32 in10.0 miNNW (330°)3.5 mphClear
8:56 AM37.9 °F35.1 °F89 %30.32 in10.0 miCalmClear
9:56 AM45.0 °F37.9 °F76 %30.32 in10.0 miCalmClear
10:56 AM51.1 °F39.0 °F63 %30.31 in10.0 miNNE (20°)3.5 mphClear
11:56 AM55.9 °F37.0 °F49 %30.27 in10.0 miCalmClear
12:56 PM60.1 °F37.9 °F44 %30.24 in10.0 miCalmClear
1:56 PM63.0 °F37.9 °F40 %30.21 in10.0 miCalmClear
2:56 PM66.0 °F36.0 °F33 %30.19 in10.0 miCalmClear
3:56 PM64.9 °F42.1 °F43 %30.18 in10.0 miWest (280°)3.5 mphClear
4:56 PM57.0 °F41.0 °F55 %30.18 in10.0 miCalmClear
5:56 PM53.1 °F41.0 °F64 %30.18 in10.0 miCalmClear
7:56 PM46.9 °F39.9 °F77 %30.20 in10.0 miCalmClear
8:56 PM45.0 °F39.0 °F80 %30.21 in10.0 miCalmClear
10:56 PM42.1 °F37.9 °F85 %30.22 in6.0 miCalmClear
11:56 PM39.9 °F37.0 °F89 %30.22 in6.0 miCalmClear
Hourly data recorded from KUKI, located miles away from Mendocino, California







STORIES FROM OUR PARTNERS